Back to catalog

OPS 4682 DEB

AlivePO
NORAD 14048·DEBRIS·🇺🇸 United States

Launched Apr 3, 1965 from Vandenberg Space Force Base

Loading…

Next Passes (next 24 hours)

TLE

FreshSource: Space-Track

Epoch: Sep 14, 2026, 07:35 UTC

1 14048U 65027K   26257.31624339  .00000409  00000-0  13476-2 0  9996
2 14048  90.2537  16.8555 0016023  49.8496 337.8929 12.99262714 65282

Track OPS 4682 DEB in real time with AllMySat

Download on the App Store